Location: Aalen
(48.8330°N, 10.1000°E)
Time: 05:44:42
(UTC+02:00)

Transit 2A Rocket - Visible Passes

Search period start: 26 July 2021 00:00
Search period end: 05 August 2021 00:00
Orbit: 590 x 913 km, 66.7° (Epoch: 25 July)

Date Brightness Start Highest point End Pass type
(mag) Time Alt. Az. Time Alt. Az. Time Alt. Az.
26 Jul 6.3 00:22:02 10° NNW 00:27:00 38° NE 00:31:08 16° ESE visible
26 Jul 5.4 02:04:30 10° NW 02:09:46 50° WSW 02:10:59 42° SSW visible
26 Jul 7.6 21:57:49 10° N 21:59:42 12° NNE 22:01:39 10° NE visible
26 Jul 6.7 23:39:34 10° NNW 23:44:05 27° NE 23:48:54 10° E visible
27 Jul 5.1 01:21:45 10° NW 01:27:11 77° WSW 01:28:55 46° SSE visible
27 Jul 7.0 03:06:05 10° WNW 03:08:47 15° WSW 03:08:47 15° WSW visible
27 Jul 7.1 22:57:07 10° NNW 23:01:04 21° NNE 23:05:14 10° E visible
28 Jul 5.3 00:39:07 10° NNW 00:44:31 71° NE 00:46:56 36° SE visible
28 Jul 6.4 02:22:24 10° WNW 02:26:44 24° WSW 02:26:48 24° WSW visible
28 Jul 7.4 22:14:41 10° NNW 22:17:57 16° NNE 22:21:21 10° ENE visible
28 Jul 5.8 23:56:34 10° NNW 00:01:46 48° NE 00:05:01 24° ESE visible
29 Jul 5.8 01:39:17 10° NW 01:44:19 37° WSW 01:44:52 36° SW visible
29 Jul 7.5 21:32:15 10° N 21:34:44 13° NNE 21:37:19 10° NE visible
29 Jul 6.4 23:14:04 10° NNW 23:18:55 34° NE 23:23:08 14° E visible
30 Jul 5.3 00:56:25 10° NW 01:01:49 58° WSW 01:03:00 48° SSW visible
30 Jul 7.4 02:42:43 10° W 02:42:52 10° W 02:42:52 10° W visible
30 Jul 6.8 22:31:35 10° NNW 22:35:57 25° NE 22:40:37 10° E visible
31 Jul 5.1 00:13:43 10° NW 00:19:12 89° SW 00:21:11 43° SSE visible
31 Jul 6.9 01:57:34 10° WNW 02:01:03 18° WSW 02:01:03 18° WSW visible
31 Jul 7.1 21:49:08 10° NNW 21:52:54 19° NNE 21:56:52 10° ENE visible
31 Jul 5.4 23:31:06 10° NNW 23:36:30 62° NE 23:39:25 29° ESE visible
01 Aug 6.3 01:14:09 10° NW 01:18:51 28° WSW 01:19:18 28° WSW visible
01 Aug 6.0 22:48:34 10° NNW 22:53:42 42° NE 22:57:41 18° ESE visible
02 Aug 5.7 00:31:09 10° NW 00:36:23 44° WSW 00:37:34 39° SSW visible
02 Aug 6.4 22:06:04 10° NNW 22:10:48 30° NE 22:15:53 10° E visible
02 Aug 5.3 23:48:22 10° NW 23:53:50 69° WSW 23:55:53 40° S visible
03 Aug 7.3 01:33:12 10° WNW 01:35:36 13° WSW 01:35:46 13° WSW visible
03 Aug 6.8 21:23:36 10° NNW 21:27:48 23° NNE 21:32:17 10° E visible
03 Aug 5.2 23:05:41 10° NW 23:11:12 80° NE 23:14:15 30° SE visible
04 Aug 6.8 00:49:11 10° WNW 00:53:19 21° WSW 00:54:08 21° WSW visible
04 Aug 5.6 22:23:05 10° NNW 22:28:28 54° NE 22:32:39 18° ESE visible
